(271824) = 2004 TL146

Discovered at Kitt Peak on 2004-10-05 by Spacewatch.

Orbit

Orbit type: Main Belt

Note: WebGL enabled browser required.

epoch2024-03-31.0
epoch JD2460400.5
perihelion date2023-07-06.42915
perihelion JD2460131.92915
argument of perihelion (°)33.01645
ascending node (°)48.64995
inclination (°)4.59133
eccentricity0.0937128
perihelion distance (AU)2.4806130
Tisserand w.r.t. Jupiter3.3
ΔV w.r.t. Earth (km/sec)10.0
semimajor axis (AU)2.7371157
mean anomaly (°)58.45518
mean daily motion (°/day)0.21765270
aphelion distance (AU)2.994
period (years)4.53
P-vector [x]0.14624910
P-vector [y]0.88938481
P-vector [z]0.43313493
Q-vector [x]-0.98742102
Q-vector [y]0.10464628
Q-vector [z]0.11852802
absolute magnitude16.12
phase slope0.15
uncertainty0
referenceMPEC 2024-E144
observations used610
oppositions16
arc length (days)8001
first opposition used2002
last opposition used2024
residual rms (arc-secs)0.65
perturbers coarse indicatorM-v
perturbers precise indicator003Ek
first observation date used2002-04-14.0
last observation date used2024-03-10.0
computer nameMPCLINUX
JD of orbit computation2456700.322681
perihelion JD uncertainty (days)2.3704E-04
argument of perihelion uncertainty (°)8.9372E-05
ascending node uncertainty (°)7.2895E-05
inclination uncertainty (°)7.5600E-06
eccentricity uncertainty 5.2251E-08
perihelion distance uncertainty (AU)1.5606E-07
Minimum Orbit Intersection Distances (in AU)
for orbit epoch: 2460400.5, reference: E2024-GB3
Mercury2.173
Venus1.76114
Earth1.49821
Mars0.89425
Jupiter2.20094
Saturn6.56656
Uranus15.7078
Neptune27.2043

Observations

627 total observations over interval: 2002 04 14.33101 – 2024 03 10.316356
These data are available for download (format description).

Date (UT) J2000 RA J2000 Dec Magn Location Ref
2002 04 14.33101 13 34 53.37 -06 42 59.3 20.3   644 – Palomar Mountain/NEAT MPS 172865
2002 04 14.35733 13 34 51.93 -06 42 53.4 20.3   644 – Palomar Mountain/NEAT MPS 172865
2002 04 14.37749 13 34 50.85 -06 42 49.1 20.2   644 – Palomar Mountain/NEAT MPS 172865
2004 09 07.44841 02 07 02.90 +09 02 58.5 20.2 V 691 – Steward Observatory, Kitt Peak-Spacewatch MPS 155932
2004 09 07.47534 02 07 02.63 +09 02 57.9 20.2 V 691 – Steward Observatory, Kitt Peak-Spacewatch MPS 155932
2004 09 07.50165 02 07 02.37 +09 02 57.0 20.5 V 691 – Steward Observatory, Kitt Peak-Spacewatch MPS 155932
2004 09 17.44410 02 04 24.68 +08 52 58.7 20.1 V 691 – Steward Observatory, Kitt Peak-Spacewatch MPS 155932
2004 09 17.47045 02 04 24.00 +08 52 56.3 20.1 V 691 – Steward Observatory, Kitt Peak-Spacewatch MPS 155932
2004 09 17.49725 02 04 23.33 +08 52 53.4 20.0 V 691 – Steward Observatory, Kitt Peak-Spacewatch MPS 155932
2004 10 05.26461 01 53 43.33 +08 10 57.0 19.7 V 691 – Steward Observatory, Kitt Peak-Spacewatch MPS 117859
2004 10 05.29374 01 53 41.90 +08 10 51.8 19.7 V 691 – Steward Observatory, Kitt Peak-Spacewatch MPS 117859
2004 10 05.32507 01 53 40.39 +08 10 46.2 19.8 V 691 – Steward Observatory, Kitt Peak-Spacewatch MPS 117859
2004 10 07.18099 01 52 12.23 +08 05 03.5 19.2 R 699 – Lowell Observatory-LONEOS MPS 155932
2004 10 07.20042 01 52 11.34 +08 04 59.6   699 – Lowell Observatory-LONEOS MPS 155932
2004 10 07.21989 01 52 10.35 +08 04 57.7   699 – Lowell Observatory-LONEOS MPS 155932
2004 10 07.23938 01 52 09.54 +08 04 52.8   699 – Lowell Observatory-LONEOS MPS 155932
2004 10 09.24976 01 50 30.29 +07 58 31.8 19.2   704 – Lincoln Laboratory ETS, New Mexico MPS 117859
2004 10 09.26070 01 50 29.62 +07 58 29.3 19.4   704 – Lincoln Laboratory ETS, New Mexico MPS 117859
2004 10 09.27164 01 50 29.17 +07 58 27.9 20.0   704 – Lincoln Laboratory ETS, New Mexico MPS 117859
2004 10 09.28259 01 50 28.58 +07 58 26.1 19.5   704 – Lincoln Laboratory ETS, New Mexico MPS 117859
2004 10 09.29353 01 50 27.96 +07 58 24.3 19.6   704 – Lincoln Laboratory ETS, New Mexico MPS 117859
2004 10 20.20080 01 40 52.07 +07 22 31.7 19.2   704 – Lincoln Laboratory ETS, New Mexico MPS 117859
2004 10 20.21020 01 40 51.55 +07 22 30.4 19.4   704 – Lincoln Laboratory ETS, New Mexico MPS 117859
2004 10 20.21961 01 40 50.99 +07 22 26.9 19.4   704 – Lincoln Laboratory ETS, New Mexico MPS 117859
2004 10 20.22901 01 40 50.49 +07 22 27.0 19.3   704 – Lincoln Laboratory ETS, New Mexico MPS 117859
2004 10 20.23842 01 40 49.98 +07 22 24.9 19.4   704 – Lincoln Laboratory ETS, New Mexico MPS 117859
2005 11 04.49994 10 03 03.06 +16 35 22.2 21.6 V 691 – Steward Observatory, Kitt Peak-Spacewatch MPS 172865
2005 11 04.51237 10 03 04.08 +16 35 18.2 21.1 V 691 – Steward Observatory, Kitt Peak-Spacewatch MPS 172865
2005 11 04.52481 10 03 05.02 +16 35 14.6 21.2 V 691 – Steward Observatory, Kitt Peak-Spacewatch MPS 172865
2006 01 26.38531 10 42 03.31 +15 45 42.4 20.8 V 703 – Catalina Sky Survey MPS 172865
2006 01 26.39353 10 42 02.84 +15 45 45.0 20.0 V 703 – Catalina Sky Survey MPS 172865
2006 01 26.40168 10 42 02.70 +15 45 46.8 19.7 V 703 – Catalina Sky Survey MPS 172865
2006 01 26.40987 10 42 02.41 +15 45 48.1 19.8 V 703 – Catalina Sky Survey MPS 172865
2006 01 31.408506 10 38 58.073 +16 10 33.30 19.99 V 645 – Apache Point-Sloan Digital Sky Survey MPS 390496
2006 01 31.411978 10 38 57.929 +16 10 34.30 20.77   645 – Apache Point-Sloan Digital Sky Survey MPS 390496
2006 02 04.28745 10 36 12.83 +16 30 35.8 19.5 C 704 – Lincoln Laboratory ETS, New Mexico MPS 294415
2006 02 04.30041 10 36 12.31 +16 30 40.4 18.5 C 704 – Lincoln Laboratory ETS, New Mexico MPS 294415
2006 02 04.31356 10 36 12.04 +16 30 45.6 18.9 C 704 – Lincoln Laboratory ETS, New Mexico MPS 294415
2006 02 04.32770 10 36 11.09 +16 30 51.3 19.6 C 704 – Lincoln Laboratory ETS, New Mexico MPS 294415
2006 02 22.30651 10 20 43.87 +18 01 05.7 19.7   704 – Lincoln Laboratory ETS, New Mexico MPS 172865
2006 02 22.31925 10 20 43.17 +18 01 08.8 19.8   704 – Lincoln Laboratory ETS, New Mexico MPS 172865
2006 02 22.33190 10 20 42.44 +18 01 12.6 19.1   704 – Lincoln Laboratory ETS, New Mexico MPS 172865
2006 02 22.34469 10 20 41.73 +18 01 16.7 19.6   704 – Lincoln Laboratory ETS, New Mexico MPS 172865
2006 02 22.41001 10 20 38.04 +18 01 33.4 19.4   704 – Lincoln Laboratory ETS, New Mexico MPS 172865
2006 02 22.43387 10 20 36.69 +18 01 38.8 19.9   704 – Lincoln Laboratory ETS, New Mexico MPS 172865
2006 02 22.45839 10 20 35.30 +18 01 46.1 19.6   704 – Lincoln Laboratory ETS, New Mexico MPS 172865
2008 08 05.55749 22 30 09.03 -16 52 12.1 20.8 V E12 – Siding Spring Survey MPS 253524
2008 08 05.56836 22 30 08.56 -16 52 16.2 20.2 V E12 – Siding Spring Survey MPS 253524
2008 08 05.57922 22 30 08.13 -16 52 18.6 19.9 V E12 – Siding Spring Survey MPS 253524
2008 08 05.59012 22 30 07.59 -16 52 22.0 20.0 V E12 – Siding Spring Survey MPS 253524
2009 08 18.46640 04 57 07.70 +22 59 02.7 21.3 V 691 – Steward Observatory, Kitt Peak-Spacewatch MPS 291725
2009 08 18.47906 04 57 08.81 +22 59 05.6 21.3 V 691 – Steward Observatory, Kitt Peak-Spacewatch MPS 291725
2009 08 18.49172 04 57 09.95 +22 59 07.9 21.3 V 691 – Steward Observatory, Kitt Peak-Spacewatch MPS 291725
2009 11 10.31042 06 04 29.24 +26 28 16.7 19.8 V 291 – LPL/Spacewatch II MPS 302160
2009 11 10.31657 06 04 29.13 +26 28 17.8 20.0 V 291 – LPL/Spacewatch II MPS 302160
2009 11 10.34192 06 04 28.62 +26 28 21.7 19.8 V 291 – LPL/Spacewatch II MPS 302160
2009 11 26.40953 05 55 52.22 +27 10 25.0 19.8 V 691 – Steward Observatory, Kitt Peak-Spacewatch MPS 304871
2009 11 26.43069 05 55 51.21 +27 10 27.9 19.7 V 691 – Steward Observatory, Kitt Peak-Spacewatch MPS 304871
2009 11 26.44839 05 55 50.35 +27 10 30.4 19.8 V 691 – Steward Observatory, Kitt Peak-Spacewatch MPS 304871
2009 12 10.26081 05 43 12.28 +27 39 12.3 19.1   704 – Lincoln Laboratory ETS, New Mexico MPS 306619
2009 12 10.27352 05 43 11.48 +27 39 13.6 19.4   704 – Lincoln Laboratory ETS, New Mexico MPS 306619
2009 12 10.28635 05 43 10.60 +27 39 14.5 19.4   704 – Lincoln Laboratory ETS, New Mexico MPS 306619
2009 12 10.31180 05 43 09.04 +27 39 17.3 19.5   704 – Lincoln Laboratory ETS, New Mexico MPS 306619
2009 12 16.27143 05 36 55.50 +27 47 35.3 19.4   704 – Lincoln Laboratory ETS, New Mexico MPS 307273
2009 12 16.29695 05 36 53.73 +27 47 37.0 19.4   704 – Lincoln Laboratory ETS, New Mexico MPS 307273
2009 12 16.30995 05 36 52.88 +27 47 37.4 19.5   704 – Lincoln Laboratory ETS, New Mexico MPS 307273
2009 12 20.09886 05 32 53.63 +27 51 21.6   691 – Steward Observatory, Kitt Peak-Spacewatch MPS 308620
2009 12 20.11660 05 32 52.47 +27 51 22.7   691 – Steward Observatory, Kitt Peak-Spacewatch MPS 308620
2009 12 20.13437 05 32 51.46 +27 51 21.8   691 – Steward Observatory, Kitt Peak-Spacewatch MPS 308620
2010 01 06.21298 05 16 53.14 +27 55 16.6 19.8   704 – Lincoln Laboratory ETS, New Mexico MPS 309324
2010 01 06.22567 05 16 52.40 +27 55 16.1 20.0   704 – Lincoln Laboratory ETS, New Mexico MPS 309324
2010 01 06.23835 05 16 51.83 +27 55 16.4 20.2   704 – Lincoln Laboratory ETS, New Mexico MPS 309324
2011 03 27.24747 13 25 50.86 -04 56 08.8 20.2 V 691 – Steward Observatory, Kitt Peak-Spacewatch MPS 375521
2011 03 27.26519 13 25 50.00 -04 56 04.8 20.2 V 691 – Steward Observatory, Kitt Peak-Spacewatch MPS 375521
2011 03 27.28291 13 25 49.13 -04 56 00.7 20.2 V 691 – Steward Observatory, Kitt Peak-Spacewatch MPS 375521
2011 04 02.23482 13 20 56.61 -04 32 43.0 19.9 V 691 – Steward Observatory, Kitt Peak-Spacewatch MPS 377136
2011 04 02.25599 13 20 55.49 -04 32 38.0 20.0 V 691 – Steward Observatory, Kitt Peak-Spacewatch MPS 377136
2011 04 02.27371 13 20 54.58 -04 32 33.8 20.1 V 691 – Steward Observatory, Kitt Peak-Spacewatch MPS 377136
2011 04 11.39798 13 13 01.81 -03 56 45.2 19.6 V 703 – Catalina Sky Survey MPS 378609
2011 04 11.40574 13 13 01.38 -03 56 43.4 20.6 V 703 – Catalina Sky Survey MPS 378609
2011 04 11.41370 13 13 00.98 -03 56 41.0 19.9 V 703 – Catalina Sky Survey MPS 378609
2011 04 11.42120 13 13 00.44 -03 56 39.8 19.6 V 703 – Catalina Sky Survey MPS 378609
2011 04 13.18101 13 11 29.72 -03 50 01.7 19.9 V 691 – Steward Observatory, Kitt Peak-Spacewatch MPS 378609
